Location: Molino di Ancona
(43.6167°N, 13.3667°E)
Time: 06:01:23
(UTC+00:00)

Meteor 1-11 Rocket - Pass Details

Date: 15 December 2019
Orbit: 831 x 916 km, 81.2° (Epoch: 19 January)

Event Time Altitude Azimuth Distance (km) Brightness Sun altitude
Rises 05:01:39 0° 191° (S) 3,449 7.0 -15.8°
Reaches altitude 10° 05:04:04 10° 192° (SSW) 2,528 6.2 -15.3°
Maximum altitude 05:09:50 82° 279° (W) 908 3.7 -14.4°
Drops below altitude 10° 05:15:47 10° 9° (N) 2,597 6.1 -13.3°
Sets 05:18:17 0° 10° (N) 3,551 6.8 -12.9°
